| time (UTC) | temp C | wind direction | speed KPH | gust KPH | rain 1hr cm | rain 24hr cm | rain mn cm | humidity % | barometer mb |
| 20260505201036 | 24 | 237 | 3.2 | 4.8 | 0.00 | 0.00 | 0.00 | 47 | 1003.5 |
| 20260505200534 | 25 | 237 | 4.8 | 11.3 | 0.00 | 0.00 | 0.00 | 47 | 1003.7 |
| 20260505200030 | 24 | 228 | 4.8 | 9.7 | 0.00 | 0.00 | 0.00 | 47 | 1003.8 |
| 20260505195526 | 23 | 307 | 8.0 | 8.0 | 0.00 | 0.00 | 0.00 | 48 | 1003.8 |
| 20260505195024 | 23 | 245 | 6.4 | 9.7 | 0.00 | 0.00 | 0.00 | 48 | 1003.8 |
| 20260505194521 | 23 | 239 | 4.8 | 8.0 | 0.00 | 0.00 | 0.00 | 48 | 1003.9 |
| 20260505194016 | 24 | 247 | 4.8 | 9.7 | 0.00 | 0.00 | 0.00 | 47 | 1004.0 |
| 20260505193514 | 24 | 217 | 9.7 | 12.9 | 0.00 | 0.00 | 0.00 | 46 | 1004.1 |
| 20260505193011 | 24 | 228 | 9.7 | 16.1 | 0.00 | 0.00 | 0.00 | 46 | 1004.2 |
| 20260505192509 | 25 | 211 | 4.8 | 8.0 | 0.00 | 0.00 | 0.00 | 46 | 1004.2 |
| 20260505192007 | 25 | 261 | 3.2 | 11.3 | 0.00 | 0.00 | 0.00 | 46 | 1004.3 |
| 20260505191505 | 25 | 252 | 3.2 | 11.3 | 0.00 | 0.00 | 0.00 | 46 | 1004.3 |
| 20260505191002 | 25 | 192 | 9.7 | 20.9 | 0.00 | 0.00 | 0.00 | 45 | 1004.3 |
| 20260505190457 | 25 | 250 | 11.3 | 12.9 | 0.00 | 0.00 | 0.00 | 45 | 1004.5 |
| 20260505185952 | 24 | 169 | 6.4 | 11.3 | 0.00 | 0.00 | 0.00 | 46 | 1004.5 |
| 20260505185450 | 24 | 244 | 3.2 | 9.7 | 0.00 | 0.00 | 0.00 | 47 | 1004.9 |
| 20260505184946 | 23 | 252 | 3.2 | 8.0 | 0.00 | 0.00 | 0.00 | 48 | 1004.9 |
| 20260505184443 | 23 | 264 | 6.4 | 11.3 | 0.00 | 0.00 | 0.00 | 48 | 1004.9 |
| 20260505183939 | 24 | 239 | 8.0 | 12.9 | 0.00 | 0.00 | 0.00 | 48 | 1005.0 |
| 20260505183437 | 24 | 236 | 4.8 | 8.0 | 0.00 | 0.00 | 0.00 | 47 | 1004.9 |
| 20260505182933 | 24 | 206 | 8.0 | 9.7 | 0.00 | 0.00 | 0.00 | 47 | 1005.1 |
| 20260505182431 | 26 | 223 | 6.4 | 11.3 | 0.00 | 0.00 | 0.00 | 44 | 1005.0 |
| 20260505181926 | 27 | 226 | 6.4 | 14.5 | 0.00 | 0.00 | 0.00 | 41 | 1005.3 |
| 20260505181424 | 28 | 233 | 8.0 | 12.9 | 0.00 | 0.00 | 0.00 | 34 | 1005.3 |
| 20260505180921 | 28 | 242 | 4.8 | 9.7 | 0.00 | 0.00 | 0.00 | 35 | 1005.0 |
| 20260505180417 | 28 | 242 | 6.4 | 11.3 | 0.00 | 0.00 | 0.00 | 35 | 1005.0 |
| 20260505175914 | 28 | 240 | 4.8 | 8.0 | 0.00 | 0.00 | 0.00 | 35 | 1005.3 |
| 20260505175410 | 28 | 280 | 4.8 | 8.0 | 0.00 | 0.00 | 0.00 | 34 | 1005.4 |
| 20260505174907 | 28 | 231 | 9.7 | 14.5 | 0.00 | 0.00 | 0.00 | 36 | 1005.5 |
| 20260505174404 | 28 | 259 | 9.7 | 11.3 | 0.00 | 0.00 | 0.00 | 35 | 1005.3 |
| 20260505173900 | 27 | 329 | 4.8 | 9.7 | 0.00 | 0.00 | 0.00 | 37 | 1005.4 |
| 20260505173357 | 27 | 254 | 8.0 | 12.9 | 0.00 | 0.00 | 0.00 | 37 | 1005.4 |
| 20260505172854 | 27 | 255 | 12.9 | 16.1 | 0.00 | 0.00 | 0.00 | 36 | 1005.7 |
| 20260505172352 | 27 | 266 | 4.8 | 11.3 | 0.00 | 0.00 | 0.00 | 35 | 1005.6 |
| 20260505171851 | 28 | 300 | 4.8 | 4.8 | 0.00 | 0.00 | 0.00 | 35 | 1005.7 |
| 20260505171348 | 27 | 317 | 3.2 | 4.8 | 0.00 | 0.00 | 0.00 | 36 | 1005.7 |
| 20260505170844 | 27 | 326 | 4.8 | 9.7 | 0.00 | 0.00 | 0.00 | 37 | 1005.9 |
| 20260505170342 | 27 | 229 | 6.4 | 14.5 | 0.00 | 0.00 | 0.00 | 37 | 1006.0 |
| 20260505165837 | 27 | 241 | 6.4 | 9.7 | 0.00 | 0.00 | 0.00 | 37 | 1006.1 |
| 20260505165333 | 27 | 210 | 6.4 | 9.7 | 0.00 | 0.00 | 0.00 | 38 | 1006.3 |
| 20260505164829 | 26 | 317 | 4.8 | 8.0 | 0.00 | 0.00 | 0.00 | 39 | 1006.3 |
| 20260505164326 | 26 | 281 | 3.2 | 9.7 | 0.00 | 0.00 | 0.00 | 40 | 1006.4 |
| 20260505163824 | 26 | 252 | 11.3 | 14.5 | 0.00 | 0.00 | 0.00 | 39 | 1006.5 |
| 20260505163322 | 26 | 267 | 4.8 | 4.8 | 0.00 | 0.00 | 0.00 | 39 | 1006.6 |
| 20260505162820 | 26 | 247 | 4.8 | 9.7 | 0.00 | 0.00 | 0.00 | 39 | 1006.8 |
| 20260505162316 | 26 | 292 | 3.2 | 4.8 | 0.00 | 0.00 | 0.00 | 39 | 1006.8 |
| 20260505161813 | 25 | 260 | 1.6 | 8.0 | 0.00 | 0.00 | 0.00 | 40 | 1007.0 |
| 20260505161311 | 26 | 231 | 8.0 | 9.7 | 0.00 | 0.00 | 0.00 | 40 | 1007.1 |
| 20260505160808 | 25 | 276 | 3.2 | 3.2 | 0.00 | 0.00 | 0.00 | 41 | 1007.3 |
| 20260505160306 | 25 | 353 | 4.8 | 11.3 | 0.00 | 0.00 | 0.00 | 41 | 1007.4 |
| 20260505153245 | 24 | 247 | 8.0 | 9.7 | 0.00 | 0.00 | 0.00 | 43 | 1007.6 |
| 20260505152742 | 24 | 213 | 8.0 | 9.7 | 0.00 | 0.00 | 0.00 | 43 | 1007.8 |
| 20260505152238 | 23 | 261 | 3.2 | 8.0 | 0.00 | 0.00 | 0.00 | 45 | 1007.9 |
| 20260505151732 | 23 | 260 | 3.2 | 11.3 | 0.00 | 0.00 | 0.00 | 46 | 1008.1 |
| 20260505151230 | 22 | 314 | 3.2 | 11.3 | 0.00 | 0.00 | 0.00 | 47 | 1008.1 |
| 20260505150726 | 23 | 252 | 4.8 | 4.8 | 0.00 | 0.00 | 0.00 | 45 | 1008.4 |
| 20260505150223 | 22 | 247 | 3.2 | 8.0 | 0.00 | 0.00 | 0.00 | 46 | 1008.4 |
| 20260505140651 | 20 | 259 | 3.2 | 4.8 | 0.00 | 0.00 | 0.00 | 51 | 1007.9 |
| 20260505140148 | 20 | 253 | 1.6 | 3.2 | 0.00 | 0.00 | 0.00 | 51 | 1007.8 |
| 20260505130112 | 18 | 223 | 4.8 | 4.8 | 0.00 | 0.00 | 0.00 | 52 | 1008.7 |
| 20260505124601 | 18 | 286 | 4.8 | 4.8 | 0.00 | 0.00 | 0.00 | 51 | 1008.6 |
| 20260505124058 | 18 | 265 | 3.2 | 3.2 | 0.00 | 0.00 | 0.00 | 53 | 1008.7 |
| 20260505123554 | 18 | 260 | 3.2 | 8.0 | 0.00 | 0.00 | 0.00 | 52 | 1008.6 |
| 20260505123050 | 18 | 273 | 3.2 | 4.8 | 0.00 | 0.00 | 0.00 | 53 | 1008.2 |
| 20260505122547 | 17 | 272 | 0.0 | 4.8 | 0.00 | 0.00 | 0.00 | 58 | 1008.1 |
| 20260505122044 | 17 | 221 | 3.2 | 3.2 | 0.00 | 0.00 | 0.00 | 58 | 1008.2 |
| 20260505121541 | 16 | 270 | 1.6 | 3.2 | 0.00 | 0.00 | 0.00 | 59 | 1008.1 |
| 20260505121038 | 16 | 255 | 1.6 | 3.2 | 0.00 | 0.00 | 0.00 | 59 | 1008.4 |
| 20260505120534 | 15 | 261 | 1.6 | 3.2 | 0.00 | 0.00 | 0.00 | 61 | 1008.4 |
| 20260505120030 | 15 | 242 | 1.6 | 4.8 | 0.00 | 0.00 | 0.00 | 62 | 1008.2 |
| 20260505115524 | 15 | 255 | 3.2 | 3.2 | 0.00 | 0.00 | 0.00 | 63 | 1008.3 |
| 20260505115022 | 14 | 257 | 1.6 | 8.0 | 0.00 | 0.00 | 0.00 | 63 | 1008.5 |
| 20260505114519 | 13 | 225 | 3.2 | 3.2 | 0.00 | 0.00 | 0.00 | 65 | 1008.7 |
| 20260505114015 | 13 | 272 | 0.0 | 1.6 | 0.00 | 0.00 | 0.00 | 67 | 1008.8 |
| 20260505113512 | 13 | 263 | 1.6 | 1.6 | 0.00 | 0.00 | 0.00 | 66 | 1008.7 |
| 20260505113009 | 13 | 251 | 1.6 | 3.2 | 0.00 | 0.00 | 0.00 | 69 | 1008.6 |
| 20260505112505 | 12 | 245 | 1.6 | 1.6 | 0.00 | 0.00 | 0.00 | 70 | 1008.5 |
| 20260505112002 | 12 | 258 | 1.6 | 3.2 | 0.00 | 0.00 | 0.00 | 72 | 1008.7 |
| 20260505111456 | 11 | 242 | 3.2 | 3.2 | 0.00 | 0.00 | 0.00 | 73 | 1008.6 |
| 20260505110953 | 10 | 263 | 0.0 | 1.6 | 0.00 | 0.00 | 0.00 | 80 | 1008.7 |
| 20260505110449 | 9 | 275 | 0.0 | 1.6 | 0.00 | 0.00 | 0.00 | 83 | 1008.6 |
| 20260505101921 | 7 | 267 | 0.0 | 0.0 | 0.00 | 0.00 | 0.00 | 86 | 1008.7 |
| 20260505101415 | 7 | 264 | 0.0 | 0.0 | 0.00 | 0.00 | 0.00 | 86 | 1008.7 |
| 20260505100911 | 7 | 258 | 1.6 | 1.6 | 0.00 | 0.00 | 0.00 | 86 | 1008.6 |
| 20260505100408 | 7 | 259 | 0.0 | 0.0 | 0.00 | 0.00 | 0.00 | 85 | 1008.7 |
| 20260505095903 | 7 | 265 | 0.0 | 0.0 | 0.00 | 0.00 | 0.00 | 85 | 1008.6 |
| 20260505095401 | 7 | 266 | 0.0 | 0.0 | 0.00 | 0.00 | 0.00 | 85 | 1008.8 |
| 20260505094857 | 7 | 269 | 0.0 | 0.0 | 0.00 | 0.00 | 0.00 | 85 | 1008.6 |
| 20260505094354 | 7 | 272 | 0.0 | 0.0 | 0.00 | 0.00 | 0.00 | 85 | 1008.8 |
| 20260505093850 | 7 | 268 | 0.0 | 0.0 | 0.00 | 0.00 | 0.00 | 85 | 1008.6 |
| 20260505093347 | 7 | 260 | 0.0 | 0.0 | 0.00 | 0.00 | 0.00 | 84 | 1008.6 |
| 20260505092845 | 8 | 270 | 0.0 | 0.0 | 0.00 | 0.00 | 0.00 | 84 | 1008.7 |
| 20260505092343 | 8 | 268 | 0.0 | 0.0 | 0.00 | 0.00 | 0.00 | 82 | 1008.6 |
| 20260505091839 | 8 | 272 | 0.0 | 0.0 | 0.00 | 0.00 | 0.00 | 82 | 1008.7 |
| 20260505091337 | 8 | 259 | 0.0 | 1.6 | 0.00 | 0.00 | 0.00 | 81 | 1008.6 |
| 20260505090835 | 8 | 258 | 0.0 | 1.6 | 0.00 | 0.00 | 0.00 | 81 | 1008.5 |
| 20260505090333 | 8 | 260 | 0.0 | 0.0 | 0.00 | 0.00 | 0.00 | 82 | 1008.7 |
| 20260505085830 | 7 | 260 | 0.0 | 0.0 | 0.00 | 0.00 | 0.00 | 84 | 1008.7 |
| 20260505085328 | 7 | 264 | 0.0 | 0.0 | 0.00 | 0.00 | 0.00 | 84 | 1008.8 |
| 20260505084826 | 7 | 267 | 0.0 | 0.0 | 0.00 | 0.00 | 0.00 | 84 | 1008.7 |
| 20260505084324 | 7 | 267 | 0.0 | 0.0 | 0.00 | 0.00 | 0.00 | 85 | 1008.7 |
| 20260505083821 | 7 | 267 | 0.0 | 0.0 | 0.00 | 0.00 | 0.00 | 84 | 1008.9 |
| 20260505083318 | 7 | 268 | 0.0 | 0.0 | 0.00 | 0.00 | 0.00 | 84 | 1008.9 |
| 20260505082815 | 7 | 267 | 0.0 | 0.0 | 0.00 | 0.00 | 0.00 | 83 | 1008.9 |
| 20260505082311 | 7 | 266 | 0.0 | 0.0 | 0.00 | 0.00 | 0.00 | 82 | 1008.9 |
| 20260505081807 | 8 | 251 | 0.0 | 0.0 | 0.00 | 0.00 | 0.00 | 82 | 1008.9 |
| 20260505081304 | 8 | 258 | 0.0 | 0.0 | 0.00 | 0.00 | 0.00 | 82 | 1009.1 |
| 20260505080801 | 8 | 266 | 0.0 | 0.0 | 0.00 | 0.00 | 0.00 | 82 | 1008.9 |
| 20260505080256 | 8 | 266 | 0.0 | 0.0 | 0.00 | 0.00 | 0.00 | 83 | 1009.2 |
| 20260505075752 | 8 | 283 | 0.0 | 0.0 | 0.00 | 0.00 | 0.00 | 82 | 1009.0 |
| 20260505075250 | 8 | 293 | 0.0 | 0.0 | 0.00 | 0.00 | 0.00 | 81 | 1009.2 |
| 20260505074747 | 8 | 274 | 0.0 | 0.0 | 0.00 | 0.00 | 0.00 | 81 | 1009.2 |
| 20260505074244 | 8 | 266 | 0.0 | 0.0 | 0.00 | 0.00 | 0.00 | 80 | 1009.1 |
| 20260505073742 | 8 | 266 | 0.0 | 0.0 | 0.00 | 0.00 | 0.00 | 79 | 1009.2 |
| 20260505073239 | 8 | 264 | 0.0 | 0.0 | 0.00 | 0.00 | 0.00 | 78 | 1009.2 |
| 20260505072736 | 9 | 259 | 0.0 | 1.6 | 0.00 | 0.00 | 0.00 | 77 | 1009.2 |
| 20260505072232 | 9 | 267 | 0.0 | 0.0 | 0.00 | 0.00 | 0.00 | 76 | 1009.0 |
| 20260505071727 | 10 | 267 | 0.0 | 0.0 | 0.00 | 0.00 | 0.00 | 74 | 1009.0 |
| 20260505071225 | 10 | 268 | 0.0 | 0.0 | 0.00 | 0.00 | 0.00 | 73 | 1008.9 |
| 20260505070722 | 10 | 266 | 0.0 | 0.0 | 0.00 | 0.00 | 0.00 | 72 | 1009.0 |
| 20260505070218 | 11 | 264 | 0.0 | 0.0 | 0.00 | 0.00 | 0.00 | 70 | 1009.1 |
| 20260505065714 | 11 | 259 | 0.0 | 0.0 | 0.00 | 0.00 | 0.00 | 69 | 1008.9 |
| 20260505065212 | 11 | 261 | 0.0 | 0.0 | 0.00 | 0.00 | 0.00 | 68 | 1008.9 |
| 20260505064708 | 11 | 243 | 1.6 | 1.6 | 0.00 | 0.00 | 0.00 | 67 | 1009.0 |
| 20260505064206 | 11 | 269 | 0.0 | 0.0 | 0.00 | 0.00 | 0.00 | 67 | 1009.0 |
| 20260505063704 | 12 | 262 | 0.0 | 1.6 | 0.00 | 0.00 | 0.00 | 66 | 1009.0 |
| 20260505063159 | 12 | 246 | 1.6 | 1.6 | 0.00 | 0.00 | 0.00 | 64 | 1008.9 |
| 20260505062655 | 12 | 251 | 1.6 | 1.6 | 0.00 | 0.00 | 0.00 | 63 | 1009.0 |
| 20260505062154 | 12 | 262 | 0.0 | 1.6 | 0.00 | 0.00 | 0.00 | 63 | 1008.9 |
| 20260505061650 | 12 | 257 | 0.0 | 0.0 | 0.00 | 0.00 | 0.00 | 62 | 1009.0 |
| 20260505061149 | 12 | 253 | 1.6 | 3.2 | 0.00 | 0.00 | 0.00 | 62 | 1009.0 |
| 20260505060646 | 12 | 261 | 0.0 | 1.6 | 0.00 | 0.00 | 0.00 | 62 | 1009.1 |
| 20260505060142 | 12 | 265 | 0.0 | 1.6 | 0.00 | 0.00 | 0.00 | 62 | 1008.8 |
| 20260505055637 | 13 | 266 | 0.0 | 0.0 | 0.00 | 0.00 | 0.00 | 61 | 1008.8 |
| 20260505055134 | 13 | 265 | 0.0 | 3.2 | 0.00 | 0.00 | 0.00 | 60 | 1008.8 |
| 20260505054632 | 13 | 241 | 1.6 | 3.2 | 0.00 | 0.00 | 0.00 | 61 | 1008.8 |
| 20260505054130 | 13 | 268 | 0.0 | 0.0 | 0.00 | 0.00 | 0.00 | 61 | 1009.1 |
| 20260505053627 | 13 | 247 | 1.6 | 1.6 | 0.00 | 0.00 | 0.00 | 60 | 1008.9 |
| 20260505053123 | 13 | 254 | 1.6 | 8.0 | 0.00 | 0.00 | 0.00 | 59 | 1009.0 |
| 20260505052620 | 13 | 247 | 1.6 | 1.6 | 0.00 | 0.00 | 0.00 | 60 | 1008.8 |
| 20260505052118 | 13 | 259 | 0.0 | 1.6 | 0.00 | 0.00 | 0.00 | 59 | 1008.7 |
| 20260505051614 | 13 | 265 | 0.0 | 0.0 | 0.00 | 0.00 | 0.00 | 59 | 1008.8 |
| 20260505051113 | 13 | 258 | 0.0 | 4.8 | 0.00 | 0.00 | 0.00 | 58 | 1009.0 |
| 20260505050610 | 14 | 253 | 1.6 | 4.8 | 0.00 | 0.00 | 0.00 | 57 | 1008.8 |
| 20260505050108 | 13 | 268 | 0.0 | 3.2 | 0.00 | 0.00 | 0.00 | 58 | 1008.8 |
| 20260505041538 | 15 | 103 | 1.6 | 4.8 | 0.00 | 0.00 | 0.00 | 56 | 1008.6 |
| 20260505041036 | 15 | 251 | 1.6 | 8.0 | 0.00 | 0.00 | 0.00 | 55 | 1008.4 |
| 20260505040533 | 15 | 261 | 4.8 | 9.7 | 0.00 | 0.00 | 0.00 | 55 | 1008.4 |
| 20260505040030 | 15 | 262 | 0.0 | 1.6 | 0.00 | 0.00 | 0.00 | 55 | 1008.4 |
| 20260505035526 | 15 | 259 | 1.6 | 4.8 | 0.00 | 0.00 | 0.00 | 54 | 1008.2 |
| 20260505035022 | 15 | 257 | 1.6 | 4.8 | 0.00 | 0.00 | 0.00 | 53 | 1008.3 |
| 20260505034519 | 15 | 254 | 0.0 | 3.2 | 0.00 | 0.00 | 0.00 | 54 | 1008.1 |
| 20260505034016 | 15 | 252 | 4.8 | 4.8 | 0.00 | 0.00 | 0.00 | 53 | 1008.3 |
| 20260505033513 | 15 | 254 | 3.2 | 3.2 | 0.00 | 0.00 | 0.00 | 53 | 1008.3 |
| 20260505033011 | 15 | 251 | 3.2 | 3.2 | 0.00 | 0.00 | 0.00 | 53 | 1008.3 |
| 20260505032508 | 15 | 260 | 0.0 | 3.2 | 0.00 | 0.00 | 0.00 | 53 | 1008.3 |
| 20260505032005 | 15 | 265 | 1.6 | 3.2 | 0.00 | 0.00 | 0.00 | 53 | 1008.2 |
| 20260505031502 | 15 | 273 | 0.0 | 4.8 | 0.00 | 0.00 | 0.00 | 53 | 1008.3 |
| 20260505030958 | 15 | 258 | 4.8 | 4.8 | 0.00 | 0.00 | 0.00 | 51 | 1008.1 |
| 20260505030455 | 15 | 250 | 3.2 | 4.8 | 0.00 | 0.00 | 0.00 | 52 | 1008.2 |
| 20260505025950 | 15 | 259 | 3.2 | 8.0 | 0.00 | 0.00 | 0.00 | 50 | 1008.1 |
| 20260505025447 | 15 | 247 | 3.2 | 4.8 | 0.00 | 0.00 | 0.00 | 50 | 1008.2 |
| 20260505024946 | 15 | 243 | 1.6 | 8.0 | 0.00 | 0.00 | 0.00 | 49 | 1008.1 |
| 20260505024443 | 15 | 245 | 3.2 | 3.2 | 0.00 | 0.00 | 0.00 | 49 | 1008.3 |
| 20260505023940 | 15 | 254 | 3.2 | 4.8 | 0.00 | 0.00 | 0.00 | 48 | 1008.2 |
| 20260505023437 | 15 | 251 | 3.2 | 3.2 | 0.00 | 0.00 | 0.00 | 48 | 1007.9 |
| 20260505022934 | 14 | 245 | 3.2 | 3.2 | 0.00 | 0.00 | 0.00 | 50 | 1008.1 |
| 20260505022432 | 13 | 257 | 1.6 | 3.2 | 0.00 | 0.00 | 0.00 | 56 | 1007.9 |
| 20260505021929 | 13 | 267 | 0.0 | 0.0 | 0.00 | 0.00 | 0.00 | 58 | 1007.9 |
| 20260505021425 | 12 | 270 | 0.0 | 0.0 | 0.00 | 0.00 | 0.00 | 59 | 1007.8 |
| 20260505020921 | 12 | 267 | 0.0 | 0.0 | 0.00 | 0.00 | 0.00 | 61 | 1007.9 |
| 20260505020416 | 12 | 269 | 0.0 | 0.0 | 0.00 | 0.00 | 0.00 | 60 | 1007.8 |
| 20260505015914 | 12 | 269 | 0.0 | 0.0 | 0.00 | 0.00 | 0.00 | 61 | 1007.7 |
| 20260505015411 | 12 | 267 | 0.0 | 0.0 | 0.00 | 0.00 | 0.00 | 63 | 1007.8 |
| 20260505014908 | 12 | 269 | 0.0 | 0.0 | 0.00 | 0.00 | 0.00 | 62 | 1007.8 |
| 20260505014405 | 12 | 269 | 0.0 | 0.0 | 0.00 | 0.00 | 0.00 | 62 | 1007.7 |
| 20260505013902 | 12 | 269 | 0.0 | 0.0 | 0.00 | 0.00 | 0.00 | 67 | 1007.6 |
| 20260505013358 | 12 | 270 | 0.0 | 0.0 | 0.00 | 0.00 | 0.00 | 65 | 1007.7 |
| 20260505012857 | 12 | 270 | 0.0 | 0.0 | 0.00 | 0.00 | 0.00 | 67 | 1007.5 |
| 20260505012355 | 12 | 272 | 0.0 | 0.0 | 0.00 | 0.00 | 0.00 | 69 | 1007.7 |
| 20260505011850 | 12 | 284 | 0.0 | 0.0 | 0.00 | 0.00 | 0.00 | 70 | 1007.4 |
| 20260505011347 | 12 | 285 | 0.0 | 0.0 | 0.00 | 0.00 | 0.00 | 70 | 1007.5 |
| 20260505010843 | 12 | 285 | 0.0 | 0.0 | 0.00 | 0.00 | 0.00 | 67 | 1007.4 |
| 20260505010339 | 12 | 285 | 0.0 | 0.0 | 0.00 | 0.00 | 0.00 | 67 | 1007.3 |
| 20260505005836 | 12 | 285 | 0.0 | 0.0 | 0.00 | 0.00 | 0.00 | 70 | 1007.5 |
| 20260505005333 | 12 | 285 | 0.0 | 0.0 | 0.00 | 0.00 | 0.00 | 70 | 1007.2 |
| 20260505004830 | 12 | 285 | 0.0 | 0.0 | 0.00 | 0.00 | 0.00 | 68 | 1007.1 |
| 20260505004326 | 12 | 285 | 0.0 | 0.0 | 0.00 | 0.00 | 0.00 | 66 | 1007.2 |
| 20260505003824 | 12 | 285 | 0.0 | 0.0 | 0.00 | 0.00 | 0.00 | 62 | 1007.1 |
| 20260505003321 | 13 | 285 | 0.0 | 0.0 | 0.00 | 0.00 | 0.00 | 64 | 1006.9 |
| 20260505002817 | 13 | 285 | 0.0 | 0.0 | 0.00 | 0.00 | 0.00 | 60 | 1006.8 |
| 20260505002314 | 13 | 285 | 0.0 | 0.0 | 0.00 | 0.00 | 0.00 | 59 | 1006.6 |
| 20260505001812 | 13 | 284 | 0.0 | 0.0 | 0.00 | 0.00 | 0.00 | 56 | 1006.6 |
| 20260505001309 | 14 | 285 | 0.0 | 0.0 | 0.00 | 0.00 | 0.00 | 55 | 1006.6 |
| 20260505000806 | 15 | 285 | 0.0 | 0.0 | 0.00 | 0.00 | 0.00 | 55 | 1006.7 |
| 20260505000304 | 15 | 284 | 0.0 | 0.0 | 0.00 | 0.00 | 0.00 | 52 | 1006.5 |
| 20260504235800 | 15 | 285 | 0.0 | 0.0 | 0.00 | 0.00 | 0.00 | 51 | 1006.5 |
| 20260504235257 | 16 | 284 | 0.0 | 0.0 | 0.00 | 0.00 | 0.00 | 49 | 1006.5 |
| 20260504234754 | 16 | 284 | 0.0 | 0.0 | 0.00 | 0.00 | 0.00 | 45 | 1006.3 |
| 20260504234252 | 17 | 284 | 0.0 | 0.0 | 0.00 | 0.00 | 0.00 | 46 | 1006.4 |
| 20260504233748 | 17 | 285 | 0.0 | 0.0 | 0.00 | 0.00 | 0.00 | 40 | 1006.3 |
| 20260504233243 | 18 | 285 | 0.0 | 0.0 | 0.00 | 0.00 | 0.00 | 40 | 1006.3 |
| 20260504232740 | 18 | 285 | 0.0 | 0.0 | 0.00 | 0.00 | 0.00 | 40 | 1006.2 |
| 20260504232237 | 19 | 285 | 0.0 | 1.6 | 0.00 | 0.00 | 0.00 | 38 | 1006.2 |
| 20260504231735 | 19 | 285 | 0.0 | 3.2 | 0.00 | 0.00 | 0.00 | 38 | 1006.0 |
| 20260504231231 | 20 | 285 | 0.0 | 0.0 | 0.00 | 0.00 | 0.00 | 37 | 1005.9 |
| 20260504230727 | 20 | 272 | 1.6 | 8.0 | 0.00 | 0.00 | 0.00 | 36 | 1005.7 |
| 20260504230226 | 20 | 277 | 3.2 | 3.2 | 0.00 | 0.00 | 0.00 | 35 | 1005.8 |
| 20260504225724 | 20 | 349 | 4.8 | 8.0 | 0.00 | 0.00 | 0.00 | 34 | 1005.7 |
| 20260504225220 | 20 | 323 | 4.8 | 8.0 | 0.00 | 0.00 | 0.00 | 35 | 1005.6 |
| 20260504224717 | 20 | 306 | 1.6 | 1.6 | 0.00 | 0.00 | 0.00 | 35 | 1005.4 |
| 20260504224214 | 20 | 297 | 0.0 | 3.2 | 0.00 | 0.00 | 0.00 | 35 | 1005.5 |
| 20260504223711 | 20 | 289 | 1.6 | 1.6 | 0.00 | 0.00 | 0.00 | 35 | 1005.6 |
| 20260504223206 | 20 | 275 | 0.0 | 1.6 | 0.00 | 0.00 | 0.00 | 36 | 1005.5 |
| 20260504222703 | 20 | 282 | 1.6 | 9.7 | 0.00 | 0.00 | 0.00 | 34 | 1005.6 |
| 20260504222200 | 20 | 262 | 0.0 | 3.2 | 0.00 | 0.00 | 0.00 | 35 | 1005.5 |
| 20260504221658 | 20 | 308 | 4.8 | 4.8 | 0.00 | 0.00 | 0.00 | 34 | 1005.5 |
| 20260504221155 | 20 | 278 | 1.6 | 11.3 | 0.00 | 0.00 | 0.00 | 33 | 1005.5 |
| 20260504220651 | 21 | 308 | 3.2 | 11.3 | 0.00 | 0.00 | 0.00 | 33 | 1005.5 |
| 20260504220149 | 21 | 271 | 1.6 | 4.8 | 0.00 | 0.00 | 0.00 | 33 | 1005.4 |
| 20260504215645 | 21 | 252 | 1.6 | 4.8 | 0.00 | 0.00 | 0.00 | 33 | 1005.6 |
| 20260504215142 | 20 | 309 | 8.0 | 11.3 | 0.00 | 0.00 | 0.00 | 33 | 1005.5 |
| 20260504214638 | 21 | 326 | 3.2 | 9.7 | 0.00 | 0.00 | 0.00 | 33 | 1005.4 |
| 20260504214134 | 21 | 252 | 3.2 | 8.0 | 0.00 | 0.00 | 0.00 | 33 | 1005.5 |
| 20260504213631 | 20 | 298 | 4.8 | 12.9 | 0.00 | 0.00 | 0.00 | 33 | 1005.5 |
| 20260504213128 | 20 | 279 | 3.2 | 9.7 | 0.00 | 0.00 | 0.00 | 32 | 1005.4 |
| 20260504212624 | 21 | 314 | 4.8 | 11.3 | 0.00 | 0.00 | 0.00 | 32 | 1005.4 |
| 20260504212121 | 21 | 299 | 4.8 | 8.0 | 0.00 | 0.00 | 0.00 | 33 | 1005.6 |
| 20260504211619 | 21 | 301 | 4.8 | 16.1 | 0.00 | 0.00 | 0.00 | 32 | 1005.3 |
| 20260504211115 | 21 | 333 | 8.0 | 11.3 | 0.00 | 0.00 | 0.00 | 32 | 1005.4 |
| 20260504210613 | 21 | 324 | 3.2 | 9.7 | 0.00 | 0.00 | 0.00 | 33 | 1005.2 |
| 20260504210109 | 21 | 267 | 6.4 | 9.7 | 0.00 | 0.00 | 0.00 | 31 | 1005.1 |
| 20260504205607 | 21 | 274 | 4.8 | 8.0 | 0.00 | 0.00 | 0.00 | 32 | 1005.3 |
| 20260504205104 | 21 | 285 | 1.6 | 4.8 | 0.00 | 0.00 | 0.00 | 33 | 1005.3 |
| 20260504204602 | 21 | 288 | 4.8 | 9.7 | 0.00 | 0.00 | 0.00 | 32 | 1005.3 |
| 20260504204101 | 21 | 306 | 4.8 | 9.7 | 0.00 | 0.00 | 0.00 | 33 | 1005.3 |
| 20260504203559 | 20 | 282 | 3.2 | 12.9 | 0.00 | 0.00 | 0.00 | 33 | 1005.3 |
| 20260504203056 | 20 | 278 | 1.6 | 9.7 | 0.00 | 0.00 | 0.00 | 34 | 1005.1 |
| 20260504202551 | 21 | 25 | 4.8 | 12.9 | 0.00 | 0.00 | 0.00 | 33 | 1005.1 |
| 20260504202048 | 21 | 296 | 1.6 | 4.8 | 0.00 | 0.00 | 0.00 | 33 | 1005.4 |
| 20260504201545 | 21 | 277 | 1.6 | 9.7 | 0.00 | 0.00 | 0.00 | 34 | 1005.5 |